"startDT [UTC]","vpos","CH4 [ppm]","stdev(CH4) [ppm]","CO2 [ppm]","stdev(CO2) [ppm]","H2O [ppm]","stdev(H2O)","p_LGR [torr]","T_LGR [C]","mt1_LGR [us]","mt2_LGR [us]","T_ECpre [C]","T_EC1 [C]","T_EC2 [C]","p_inlet [hPa]","p_in [hPa]","p_out [hPa]","T_inlet [C]","RH_inlet [%]","dwpt_inlet [C]","T_vent [C]","RH_vent [%]","dwpt_vent [C]","flow_vent [l min-1]","flow_inlet [l min-1]","dwpt_sample [C]","T_room [C]"
2012-03-16 00:00:00,0.0,1.9156,0.0008,402.50,0.23,-1.0,0.0,138.25,22.17,24.58,36.26,0.04,-272.73,-272.72,-43,565,-931,16.4,0.8,-42.5,16.7,0.8,-41.7,5.73,2.45,-38.3,22.5
2012-03-16 00:01:00,0.0,1.9163,0.0010,402.47,0.26,-1.0,0.0,138.25,22.18,24.58,36.26,0.04,-272.72,-272.73,-43,566,-931,16.4,0.8,-42.4,16.7,0.8,-41.8,5.73,2.44,-38.3,22.5
2012-03-16 00:02:00,0.0,1.9157,0.0008,402.60,0.24,-1.0,0.0,138.25,22.18,24.59,36.26,0.04,-272.72,-272.73,-43,565,-931,16.4,0.8,-42.5,16.7,0.8,-41.8,5.73,2.44,-38.3,22.6
2012-03-16 00:03:00,0.0,1.9158,0.0008,402.50,0.20,-1.0,0.0,138.24,22.19,24.58,36.26,0.04,-272.73,-272.73,-43,566,-931,16.4,0.8,-42.6,16.7,0.8,-41.8,5.73,2.43,-38.3,22.5
2012-03-16 00:04:00,0.0,1.9163,0.0010,402.57,0.24,-1.0,0.0,138.25,22.20,24.58,36.26,0.04,-272.73,-272.73,-43,565,-931,16.4,0.7,-42.8,16.7,0.8,-42.0,5.73,2.44,-38.3,22.5
2012-03-16 00:05:00,0.0,1.9160,0.0008,402.51,0.24,-1.0,0.0,138.25,22.21,24.58,36.26,0.04,-272.72,-272.72,-43,566,-931,16.4,0.7,-43.0,16.7,0.8,-42.1,5.73,2.43,-38.3,22.6
2012-03-16 00:06:00,0.0,1.9154,0.0010,402.50,0.20,-1.0,0.0,138.25,22.21,24.58,36.26,0.04,-272.72,-272.73,-43,566,-931,16.5,0.7,-43.1,16.7,0.8,-42.3,5.73,2.42,-38.3,22.6
2012-03-16 00:07:00,0.0,1.9145,0.0009,402.49,0.22,-1.0,0.0,138.24,22.22,24.58,36.26,0.04,-272.72,-272.72,-43,566,-931,16.5,0.7,-43.1,16.7,0.8,-42.4,5.73,2.43,-38.3,22.5
2012-03-16 00:08:00,0.0,1.9144,0.0009,402.37,0.21,-1.0,0.0,138.25,22.23,24.58,36.27,0.04,-272.72,-272.73,-43,566,-931,16.5,0.7,-43.1,16.7,0.8,-42.3,5.73,2.42,-38.3,22.5
2012-03-16 00:09:00,0.0,1.9145,0.0009,402.41,0.23,-1.0,0.0,138.24,22.23,24.58,36.27,0.04,-272.72,-272.73,-43,566,-931,16.5,0.7,-43.1,16.7,0.8,-42.1,5.73,2.43,-38.2,22.5
2012-03-16 00:10:00,0.0,1.9146,0.0009,402.42,0.23,-1.0,0.0,138.25,22.24,24.58,36.27,0.04,-272.73,-272.72,-43,566,-931,16.5,0.7,-42.8,16.8,0.8,-42.0,5.73,2.42,-38.2,22.5
2012-03-16 00:11:00,0.0,1.9149,0.0010,402.48,0.23,-1.0,0.0,138.25,22.24,24.58,36.26,0.04,-272.72,-272.72,-43,566,-931,16.5,0.7,-42.7,16.8,0.8,-42.0,5.73,2.42,-38.2,22.5
2012-03-16 00:12:00,0.0,1.9147,0.0009,402.47,0.17,-1.0,0.0,138.24,22.25,24.59,36.27,0.04,-272.73,-272.72,-43,566,-931,16.6,0.7,-42.8,16.8,0.8,-42.1,5.73,2.43,-38.2,22.6
2012-03-16 00:13:00,0.0,1.9158,0.0009,402.43,0.21,-1.0,0.0,138.24,22.26,24.59,36.27,0.04,-272.73,-272.73,-43,566,-931,16.6,0.7,-42.7,16.8,0.8,-42.0,5.73,2.43,-38.2,22.7
2012-03-16 00:14:00,0.0,1.9162,0.0009,402.55,0.25,-1.0,0.0,138.24,22.27,24.58,36.26,0.04,-272.72,-272.72,-43,566,-931,16.6,0.7,-42.8,16.8,0.8,-41.7,5.73,2.43,-38.1,22.7
2012-03-16 00:15:00,0.0,1.9160,0.0010,402.59,0.27,-1.0,0.0,138.24,22.27,24.59,36.26,0.04,-272.72,-272.73,-43,566,-931,16.6,0.7,-42.7,16.8,0.8,-41.7,5.73,2.43,-38.1,22.6
2012-03-16 00:16:00,0.0,1.9162,0.0008,402.49,0.25,-1.0,0.0,138.24,22.28,24.58,36.27,0.04,-272.72,-272.73,-43,566,-931,16.6,0.7,-42.7,16.8,0.8,-41.9,5.73,2.43,-38.1,22.7
2012-03-16 00:17:00,0.0,1.9158,0.0007,402.49,0.21,-1.0,0.0,138.24,22.28,24.58,36.27,0.04,-272.72,-272.73,-43,566,-931,16.7,0.7,-42.7,16.9,0.8,-41.9,5.73,2.43,-38.1,22.8
2012-03-16 00:18:00,0.0,1.9163,0.0008,402.55,0.24,-1.0,0.0,138.24,22.29,24.58,36.27,0.04,-272.72,-272.73,-43,566,-931,16.7,0.7,-42.7,16.9,0.8,-42.0,5.73,2.43,-38.1,22.7
2012-03-16 00:19:00,0.0,1.9158,0.0010,402.55,0.26,-1.0,0.0,138.24,22.29,24.59,36.27,0.04,-272.72,-272.72,-43,566,-931,16.7,0.7,-42.8,16.9,0.8,-42.0,5.73,2.43,-38.1,22.7
2012-03-16 00:20:00,0.0,1.9160,0.0009,402.57,0.21,-1.0,0.0,138.24,22.30,24.59,36.27,0.04,-272.73,-272.73,-43,566,-931,16.6,0.7,-43.1,16.9,0.8,-41.9,5.73,2.43,-38.1,22.7
2012-03-16 00:21:00,0.0,1.9168,0.0012,402.63,0.20,-1.0,0.0,138.24,22.31,24.58,36.26,0.04,-272.72,-272.72,-43,567,-931,16.7,0.7,-43.0,16.9,0.8,-42.1,5.73,2.43,-38.0,22.8
2012-03-16 00:22:00,0.0,1.9174,0.0009,402.60,0.23,-1.0,0.0,138.24,22.31,24.59,36.27,0.04,-272.72,-272.72,-43,566,-931,16.7,0.7,-43.1,16.9,0.8,-42.0,5.73,2.43,-38.0,22.8
2012-03-16 00:23:00,0.0,1.9178,0.0011,402.68,0.23,-1.0,0.0,138.24,22.32,24.58,36.26,0.04,-272.72,-272.73,-43,567,-931,16.7,0.7,-43.0,16.9,0.8,-42.0,5.73,2.43,-38.0,22.8
2012-03-16 00:24:00,0.0,1.9180,0.0010,402.61,0.24,-1.0,0.0,138.24,22.32,24.58,36.27,0.04,-272.73,-272.73,-43,566,-931,16.7,0.7,-42.7,16.9,0.8,-41.9,5.73,2.43,-38.0,22.8
2012-03-16 00:25:00,0.0,1.9180,0.0008,402.63,0.23,-1.0,0.0,138.24,22.33,24.58,36.26,0.04,-272.72,-272.73,-43,567,-931,16.7,0.7,-42.6,16.9,0.8,-41.9,5.73,2.43,-38.0,22.8
2012-03-16 00:26:00,0.0,1.9175,0.0011,402.62,0.18,-1.0,0.0,138.24,22.33,24.58,36.27,0.04,-272.72,-272.72,-44,566,-931,16.8,0.7,-42.6,17.0,0.8,-41.9,5.73,2.43,-38.0,22.8
2012-03-16 00:27:00,0.0,1.9177,0.0010,402.73,0.26,-1.0,0.0,138.24,22.34,24.58,36.26,0.04,-272.72,-272.72,-43,567,-931,16.8,0.7,-42.6,17.0,0.8,-41.9,5.73,2.43,-38.0,22.8
2012-03-16 00:28:00,0.0,1.9176,0.0010,402.71,0.24,-1.0,0.0,138.24,22.35,24.58,36.25,0.04,-272.72,-272.72,-43,566,-931,16.8,0.7,-42.7,17.0,0.8,-41.9,5.73,2.43,-38.0,22.8
2012-03-16 00:29:00,0.0,1.9173,0.0009,402.69,0.25,-1.0,0.0,138.24,22.35,24.58,36.26,0.04,-272.72,-272.72,-44,567,-931,16.8,0.8,-42.4,17.0,0.8,-41.7,5.73,2.43,-38.0,22.8
2012-03-16 00:30:00,0.0,1.9176,0.0008,402.68,0.18,-1.0,0.0,138.24,22.36,24.58,36.26,0.04,-272.72,-272.73,-44,567,-931,16.8,0.7,-42.6,17.0,0.8,-41.6,5.73,2.43,-38.0,22.8
2012-03-16 00:31:00,0.0,1.9179,0.0009,402.64,0.29,-1.0,0.0,138.24,22.36,24.58,36.26,0.04,-272.72,-272.73,-43,567,-931,16.8,0.7,-42.5,17.1,0.8,-41.8,5.73,2.43,-38.0,22.9
2012-03-16 00:32:00,0.0,1.9184,0.0010,402.73,0.20,-1.0,0.0,138.24,22.37,24.58,36.26,0.04,-272.72,-272.72,-44,567,-931,16.9,0.7,-42.6,17.1,0.8,-41.8,5.73,2.43,-38.0,22.9
2012-03-16 00:33:00,0.0,1.9184,0.0009,402.59,0.21,-1.0,0.0,138.24,22.38,24.58,36.26,0.04,-272.72,-272.73,-44,567,-931,16.9,0.7,-42.6,17.1,0.8,-41.6,5.73,2.43,-37.9,23.0
2012-03-16 00:34:00,0.0,1.9186,0.0008,402.61,0.19,-1.0,0.0,138.24,22.38,24.58,36.27,0.04,-272.73,-272.73,-44,567,-931,16.9,0.7,-42.5,17.1,0.8,-41.5,5.73,2.43,-37.9,22.9
2012-03-16 00:35:00,0.0,1.9184,0.0010,402.57,0.20,-1.0,0.0,138.24,22.39,24.58,36.27,0.04,-272.72,-272.73,-44,567,-931,16.9,0.8,-42.3,17.1,0.8,-41.4,5.73,2.43,-37.9,22.9
2012-03-16 00:36:00,0.0,1.9190,0.0009,402.65,0.23,-1.0,0.0,138.24,22.40,24.58,36.26,0.04,-272.73,-272.73,-44,567,-931,16.9,0.8,-42.2,17.1,0.8,-41.6,5.73,2.43,-37.9,22.9
2012-03-16 00:37:00,0.0,1.9182,0.0008,402.71,0.23,-1.0,0.0,138.24,22.41,24.59,36.26,0.04,-272.73,-272.72,-44,567,-931,16.9,0.8,-42.2,17.1,0.8,-41.5,5.73,2.43,-37.9,22.8
2012-03-16 00:38:00,0.0,1.9186,0.0008,402.62,0.25,-1.0,0.0,138.24,22.42,24.58,36.26,0.04,-272.72,-272.72,-44,567,-931,16.9,0.8,-42.2,17.1,0.8,-41.6,5.73,2.43,-37.9,22.9
2012-03-16 00:39:00,0.0,1.9189,0.0008,402.64,0.23,-1.0,0.0,138.24,22.43,24.58,36.27,0.04,-272.72,-272.72,-44,567,-931,16.9,0.8,-41.9,17.1,0.8,-41.3,5.73,2.43,-37.9,22.9
2012-03-16 00:40:00,0.0,1.9189,0.0010,402.70,0.20,-1.0,0.0,138.24,22.43,24.58,36.26,0.04,-272.73,-272.73,-44,567,-931,16.9,0.8,-41.9,17.1,0.8,-41.2,5.73,2.43,-37.9,22.9
2012-03-16 00:41:00,0.0,1.9186,0.0010,402.71,0.23,-1.0,0.0,138.24,22.44,24.58,36.26,0.04,-272.72,-272.73,-44,567,-931,16.9,0.8,-41.9,17.2,0.9,-41.0,5.73,2.43,-37.8,22.9
2012-03-16 00:42:00,0.0,1.9191,0.0009,402.71,0.26,-1.0,0.0,138.24,22.45,24.58,36.26,0.04,-272.72,-272.73,-44,567,-931,16.9,0.8,-41.6,17.2,0.9,-40.9,5.73,2.43,-37.8,22.9
2012-03-16 00:43:00,0.0,1.9191,0.0009,402.67,0.23,-1.0,0.0,138.24,22.46,24.58,36.26,0.04,-272.73,-272.73,-44,567,-931,16.9,0.8,-41.6,17.2,0.9,-40.8,5.73,2.43,-37.8,22.9
2012-03-16 00:44:00,0.0,1.9185,0.0010,402.68,0.22,-1.0,0.0,138.24,22.46,24.59,36.26,0.04,-272.73,-272.73,-44,567,-931,17.0,0.8,-41.5,17.2,0.9,-40.8,5.73,2.43,-37.8,22.9
2012-03-16 00:45:00,0.0,1.9187,0.0010,402.64,0.25,-1.0,0.0,138.24,22.47,24.59,36.27,0.04,-272.72,-272.73,-44,567,-931,17.0,0.8,-41.5,17.2,0.9,-40.6,5.73,2.44,-37.8,22.9
2012-03-16 00:46:00,0.0,1.9188,0.0008,402.57,0.26,-1.0,0.0,138.24,22.48,24.58,36.27,0.04,-272.73,-272.73,-44,567,-931,17.0,0.8,-41.3,17.2,0.9,-40.6,5.73,2.43,-37.8,23.0
2012-03-16 00:47:00,0.0,1.9186,0.0009,402.61,0.21,-1.0,0.0,138.24,22.48,24.58,36.26,0.04,-272.73,-272.73,-44,567,-931,17.0,0.9,-41.1,17.2,0.9,-40.6,5.73,2.44,-37.8,23.0
2012-03-16 00:48:00,0.0,1.9177,0.0009,402.63,0.22,-1.0,0.0,138.24,22.49,24.59,36.27,0.04,-272.73,-272.73,-44,567,-931,17.0,0.8,-41.2,17.2,0.9,-40.5,5.73,2.44,-37.8,23.0
2012-03-16 00:49:00,0.0,1.9178,0.0010,402.61,0.25,-1.0,0.0,138.24,22.49,24.59,36.27,0.04,-272.73,-272.73,-44,567,-931,17.0,0.8,-41.2,17.3,0.9,-40.5,5.73,2.44,-37.8,22.9
2012-03-16 00:50:00,0.0,1.9179,0.0009,402.67,0.22,-1.0,0.0,138.24,22.50,24.58,36.26,0.04,-272.73,-272.73,-44,568,-931,17.0,0.9,-41.0,17.3,0.9,-40.5,5.73,2.44,-37.8,23.0
2012-03-16 00:51:00,0.0,1.9181,0.0011,402.54,0.25,-1.0,0.0,138.24,22.50,24.58,36.27,0.04,-272.73,-272.73,-44,568,-931,17.0,0.9,-40.9,17.3,0.9,-40.5,5.73,2.44,-37.8,23.0
2012-03-16 00:52:00,0.0,1.9180,0.0009,402.54,0.18,-1.0,0.0,138.24,22.51,24.58,36.26,0.04,-272.73,-272.72,-44,567,-931,17.0,0.9,-40.8,17.3,0.9,-40.2,5.73,2.43,-37.8,23.0
2012-03-16 00:53:00,0.0,1.9174,0.0008,402.56,0.26,-1.0,0.0,138.24,22.51,24.59,36.27,0.04,-272.73,-272.73,-44,568,-931,17.0,0.9,-40.6,17.3,0.9,-40.2,5.73,2.43,-37.8,23.0
2012-03-16 00:54:00,0.0,1.9178,0.0009,402.59,0.24,-1.0,0.0,138.24,22.52,24.58,36.27,0.04,-272.73,-272.73,-44,567,-931,17.0,0.9,-40.6,17.3,0.9,-40.0,5.73,2.43,-37.7,23.0
2012-03-16 00:55:00,0.0,1.9181,0.0007,402.67,0.25,-1.0,0.0,138.24,22.53,24.58,36.26,0.04,-272.73,-272.73,-44,568,-931,17.1,0.9,-40.3,17.3,0.9,-40.0,5.73,2.43,-37.7,23.1
2012-03-16 00:56:00,0.0,1.9177,0.0009,402.66,0.24,-1.0,0.0,138.24,22.53,24.58,36.26,0.04,-272.73,-272.73,-44,568,-931,17.1,0.9,-40.3,17.3,1.0,-39.9,5.73,2.43,-37.7,23.1
2012-03-16 00:57:00,0.0,1.9172,0.0009,402.62,0.26,-1.0,0.0,138.24,22.54,24.58,36.26,0.04,-272.73,-272.73,-44,567,-931,17.0,0.9,-40.5,17.3,0.9,-39.9,5.73,2.42,-37.7,23.1
2012-03-16 00:58:00,0.0,1.9170,0.0009,402.63,0.25,-1.0,0.0,138.24,22.54,24.58,36.25,0.04,-272.73,-272.73,-44,567,-931,17.1,0.9,-40.5,17.3,0.9,-39.9,5.73,2.42,-37.7,23.1
2012-03-16 00:59:00,0.0,1.9172,0.0009,402.58,0.22,-1.0,0.0,138.24,22.55,24.58,36.26,0.04,-272.72,-272.72,-44,567,-931,17.1,0.9,-40.6,17.3,0.9,-40.2,5.73,2.42,-37.7,23.1
2012-03-16 01:00:00,0.0,1.9177,0.0012,402.62,0.19,-1.0,0.0,138.24,22.56,24.58,36.26,0.04,-272.72,-272.73,-44,566,-931,17.1,0.9,-40.8,17.3,0.9,-40.3,5.73,2.41,-37.7,23.1
2012-03-16 01:01:00,0.0,1.9177,0.0009,402.75,0.20,-1.0,0.0,138.24,22.56,24.58,36.25,0.04,-272.73,-272.73,-44,566,-931,17.1,0.9,-40.8,17.3,0.9,-40.5,5.73,2.42,-37.7,23.1
2012-03-16 01:02:00,0.0,1.9179,0.0009,402.56,0.23,-1.0,0.0,138.24,22.57,24.58,36.26,0.04,-272.73,-272.73,-44,566,-931,17.1,0.9,-40.9,17.3,0.9,-40.5,5.73,2.42,-37.6,23.1
2012-03-16 01:03:00,0.0,1.9178,0.0008,402.47,0.20,-1.0,0.0,138.24,22.58,24.58,36.27,0.04,-272.73,-272.72,-44,566,-931,17.1,0.9,-40.8,17.3,0.9,-40.5,5.73,2.42,-37.6,23.1
2012-03-16 01:04:00,0.0,1.9174,0.0009,402.54,0.24,-1.0,0.0,138.24,22.59,24.58,36.26,0.04,-272.73,-272.73,-44,565,-931,17.1,0.9,-40.8,17.3,0.9,-40.4,5.73,2.42,-37.6,23.2
2012-03-16 01:05:00,0.0,1.9172,0.0009,402.50,0.21,-1.0,0.0,138.24,22.59,24.58,36.26,0.04,-272.72,-272.73,-44,565,-931,17.1,0.9,-40.9,17.4,0.9,-40.5,5.73,2.41,-37.6,23.1
2012-03-16 01:06:00,0.0,1.9173,0.0009,402.58,0.25,-1.0,0.0,138.24,22.60,24.58,36.26,0.04,-272.72,-272.73,-44,565,-931,17.1,0.8,-41.1,17.4,0.9,-40.4,5.73,2.42,-37.6,23.1
2012-03-16 01:07:00,0.0,1.9180,0.0009,402.52,0.28,-1.0,0.0,138.23,22.60,24.58,36.26,0.04,-272.72,-272.73,-44,565,-931,17.1,0.8,-41.1,17.4,0.9,-40.4,5.73,2.43,-37.6,23.1
2012-03-16 01:08:00,0.0,1.9175,0.0008,402.65,0.18,-1.0,0.0,138.24,22.61,24.58,36.25,0.04,-272.73,-272.72,-44,565,-931,17.2,0.8,-41.1,17.4,0.9,-40.4,5.73,2.43,-37.6,23.1
2012-03-16 01:09:00,0.0,1.9174,0.0010,402.61,0.23,-1.0,0.0,138.23,22.62,24.58,36.26,0.04,-272.72,-272.72,-44,565,-931,17.2,0.8,-41.1,17.4,0.9,-40.5,5.73,2.43,-37.6,23.0
2012-03-16 01:10:00,0.0,1.9175,0.0009,402.54,0.23,-1.0,0.0,138.23,22.63,24.58,36.26,0.04,-272.72,-272.73,-44,565,-931,17.2,0.8,-41.0,17.4,0.9,-40.4,5.73,2.44,-37.6,23.1
2012-03-16 01:11:00,0.0,1.9178,0.0010,402.58,0.22,-1.0,0.0,138.24,22.64,24.58,36.26,0.04,-272.73,-272.73,-44,565,-931,17.2,0.9,-40.8,17.4,0.9,-40.4,5.73,2.44,-37.5,23.1
2012-03-16 01:12:00,0.0,1.9173,0.0009,402.59,0.21,-1.0,0.0,138.23,22.64,24.58,36.26,0.04,-272.73,-272.73,-44,566,-932,17.2,0.9,-40.5,17.4,0.9,-40.1,5.73,2.44,-37.5,23.1
2012-03-16 01:13:00,0.0,1.9174,0.0010,402.54,0.21,-1.0,0.0,138.23,22.65,24.58,36.26,0.04,-272.73,-272.73,-44,565,-931,17.2,0.9,-40.4,17.4,0.9,-39.9,5.73,2.44,-37.5,23.1
2012-03-16 01:14:00,0.0,1.9175,0.0009,402.55,0.22,-1.0,0.0,138.23,22.66,24.58,36.26,0.04,-272.73,-272.73,-44,565,-931,17.2,0.9,-40.2,17.5,1.0,-39.6,5.73,2.44,-37.5,23.1
2012-03-16 01:15:00,0.0,1.9173,0.0008,402.52,0.23,-1.0,0.0,138.23,22.66,24.58,36.26,0.04,-272.72,-272.73,-44,565,-931,17.2,0.9,-40.1,17.5,1.0,-39.5,5.73,2.43,-37.5,23.1
2012-03-16 01:16:00,0.0,1.9170,0.0009,402.60,0.21,-1.0,0.0,138.23,22.67,24.58,36.26,0.04,-272.72,-272.72,-44,566,-931,17.2,1.0,-39.9,17.5,1.0,-39.3,5.73,2.43,-37.5,23.2
2012-03-16 01:17:00,0.0,1.9172,0.0009,402.61,0.23,-1.0,0.0,138.23,22.68,24.58,36.26,0.04,-272.72,-272.73,-44,565,-931,17.3,1.0,-39.9,17.5,1.0,-39.0,5.73,2.42,-37.4,23.2
2012-03-16 01:18:00,0.0,1.9169,0.0011,402.65,0.21,-1.0,0.0,138.23,22.69,24.59,36.25,0.04,-272.72,-272.73,-44,566,-932,17.3,1.0,-39.6,17.5,1.0,-39.0,5.73,2.42,-37.4,23.3
2012-03-16 01:19:00,0.0,1.9167,0.0009,402.38,0.23,-1.0,0.0,138.23,22.69,24.59,36.27,0.04,-272.73,-272.72,-44,566,-931,17.3,1.0,-39.6,17.5,1.0,-38.9,5.73,2.40,-37.4,23.3
2012-03-16 01:20:00,0.0,1.9171,0.0008,402.48,0.24,-1.0,0.0,138.23,22.70,24.58,36.26,0.04,-272.72,-272.73,-44,566,-932,17.3,1.0,-39.4,17.5,1.1,-38.7,5.73,2.41,-37.4,23.2
2012-03-16 01:21:00,0.0,1.9168,0.0009,402.53,0.21,-1.0,0.0,138.23,22.71,24.58,36.26,0.04,-272.72,-272.72,-44,566,-931,17.3,1.0,-39.3,17.5,1.1,-38.7,5.73,2.41,-37.4,23.2
2012-03-16 01:22:00,0.0,1.9167,0.0011,402.55,0.22,-1.0,0.0,138.23,22.72,24.58,36.26,0.04,-272.72,-272.72,-45,566,-932,17.3,1.0,-39.4,17.6,1.1,-38.7,5.73,2.42,-37.4,23.3
2012-03-16 01:23:00,0.0,1.9166,0.0010,402.44,0.21,-1.0,0.0,138.23,22.73,24.58,36.26,0.04,-272.72,-272.73,-45,566,-931,17.4,1.0,-39.3,17.6,1.1,-38.7,5.73,2.42,-37.3,23.3
2012-03-16 01:24:00,0.0,1.9169,0.0008,402.54,0.22,-1.0,0.0,138.23,22.74,24.58,36.26,0.04,-272.72,-272.73,-45,566,-931,17.4,1.0,-39.2,17.6,1.1,-38.6,5.73,2.43,-37.3,23.2
2012-03-16 01:25:00,0.0,1.9170,0.0009,402.43,0.20,-1.0,0.0,138.23,22.75,24.58,36.26,0.04,-272.73,-272.73,-45,566,-931,17.4,1.0,-39.0,17.6,1.1,-38.4,5.73,2.44,-37.3,23.3
2012-03-16 01:26:00,0.0,1.9170,0.0010,402.55,0.25,-1.0,0.0,138.23,22.75,24.58,36.26,0.04,-272.72,-272.72,-45,566,-931,17.4,1.0,-39.0,17.6,1.1,-38.4,5.73,2.44,-37.3,23.3
2012-03-16 01:27:00,0.0,1.9170,0.0008,402.56,0.23,-1.0,0.0,138.23,22.76,24.58,36.25,0.04,-272.73,-272.72,-45,566,-932,17.4,1.0,-39.0,17.6,1.1,-38.5,5.73,2.45,-37.3,23.4
2012-03-16 01:28:00,0.0,1.9166,0.0010,402.46,0.24,-1.0,0.0,138.23,22.77,24.59,36.26,0.04,-272.73,-272.73,-45,566,-931,17.4,1.0,-39.0,17.7,1.1,-38.4,5.73,2.44,-37.3,23.4
2012-03-16 01:29:00,0.0,1.9167,0.0008,402.52,0.24,-1.0,0.0,138.23,22.78,24.58,36.26,0.04,-272.73,-272.72,-45,566,-931,17.5,1.0,-39.0,17.7,1.1,-38.4,5.73,2.43,-37.2,23.4
2012-03-16 01:30:00,0.0,1.9182,0.0010,402.56,0.20,-1.0,0.0,138.23,22.78,24.58,36.25,0.04,-272.73,-272.73,-45,566,-931,17.5,1.0,-39.0,17.7,1.1,-38.4,5.73,2.42,-37.2,23.4
2012-03-16 01:31:00,0.0,1.9181,0.0010,402.48,0.26,-1.0,0.0,138.23,22.80,24.58,36.25,0.04,-272.73,-272.72,-45,566,-932,17.5,1.0,-39.2,17.7,1.1,-38.5,5.73,2.42,-37.2,23.5
2012-03-16 01:32:00,0.0,1.9178,0.0008,402.54,0.25,-1.0,0.0,138.23,22.80,24.58,36.25,0.04,-272.72,-272.72,-45,566,-931,17.5,1.0,-39.2,17.7,1.1,-38.6,5.73,2.40,-37.2,23.4
2012-03-16 01:33:00,0.0,1.9178,0.0010,402.43,0.21,-1.0,0.0,138.23,22.81,24.58,36.26,0.04,-272.73,-272.73,-45,566,-932,17.5,1.0,-39.5,17.7,1.0,-38.8,5.73,2.40,-37.2,23.4
2012-03-16 01:34:00,0.0,1.9179,0.0008,402.48,0.23,-1.0,0.0,138.23,22.82,24.58,36.26,0.04,-272.73,-272.73,-45,567,-931,17.5,1.0,-39.7,17.8,1.0,-38.8,5.73,2.40,-37.1,23.5
2012-03-16 01:35:00,0.0,1.9172,0.0010,402.54,0.21,-1.0,0.0,138.23,22.83,24.58,36.25,0.04,-272.73,-272.72,-45,566,-931,17.5,1.0,-39.8,17.8,1.0,-39.0,5.73,2.41,-37.1,23.5
2012-03-16 01:36:00,0.0,1.9175,0.0008,402.48,0.24,-1.0,0.0,138.23,22.84,24.58,36.26,0.04,-272.72,-272.73,-45,567,-932,17.6,0.9,-39.7,17.8,1.0,-39.1,5.73,2.42,-37.1,23.5
2012-03-16 01:37:00,0.0,1.9173,0.0008,402.56,0.19,-1.0,0.0,138.23,22.85,24.59,36.25,0.04,-272.73,-272.72,-45,567,-932,17.6,0.9,-40.0,17.8,1.0,-39.3,5.73,2.43,-37.1,23.5
2012-03-16 01:38:00,0.0,1.9176,0.0008,402.50,0.21,-1.0,0.0,138.23,22.86,24.58,36.26,0.04,-272.73,-272.73,-45,567,-931,17.6,0.9,-40.0,17.8,1.0,-39.3,5.73,2.45,-37.1,23.6
2012-03-16 01:39:00,0.0,1.9179,0.0009,402.52,0.22,-1.0,0.0,138.23,22.87,24.58,36.26,0.04,-272.72,-272.73,-45,567,-932,17.6,0.9,-40.0,17.8,1.0,-39.4,5.73,2.45,-37.0,23.6
2012-03-16 01:40:00,0.0,1.9177,0.0008,402.46,0.20,-1.0,0.0,138.23,22.88,24.58,36.26,0.04,-272.72,-272.72,-45,567,-932,17.6,0.9,-39.9,17.8,1.0,-39.1,5.73,2.44,-37.1,23.6
2012-03-16 01:41:00,0.0,1.9188,0.0009,402.48,0.25,-1.0,0.0,138.23,22.88,24.58,36.25,0.04,-272.73,-272.73,-45,566,-932,17.6,1.0,-39.7,17.9,1.0,-39.0,5.73,2.44,-37.0,23.5
2012-03-16 01:42:00,0.0,1.9192,0.0007,402.58,0.22,-1.0,0.0,138.23,22.89,24.58,36.25,0.04,-272.72,-272.73,-45,567,-932,17.6,1.0,-39.7,17.8,1.0,-39.1,5.73,2.43,-37.0,23.6
2012-03-16 01:43:00,0.0,1.9186,0.0009,402.59,0.24,-1.0,0.0,138.23,22.90,24.58,36.25,0.04,-272.72,-272.73,-45,567,-932,17.7,1.0,-39.7,17.9,1.0,-39.1,5.73,2.42,-37.0,23.6
2012-03-16 01:44:00,0.0,1.9187,0.0010,402.44,0.23,-1.0,0.0,138.23,22.91,24.58,36.26,0.04,-272.73,-272.73,-45,567,-932,17.7,1.0,-39.6,17.9,1.0,-38.9,5.73,2.41,-37.0,23.6
2012-03-16 01:45:00,0.0,1.9183,0.0008,402.57,0.19,-1.0,0.0,138.23,22.92,24.58,36.25,0.04,-272.73,-272.72,-45,567,-932,17.7,1.0,-39.6,17.9,1.0,-38.8,5.73,2.39,-37.0,23.6
2012-03-16 01:46:00,0.0,1.9182,0.0010,402.48,0.25,-1.0,0.0,138.23,22.93,24.58,36.26,0.04,-272.72,-272.73,-45,567,-932,17.7,1.0,-39.4,17.9,1.0,-38.7,5.73,2.40,-37.0,23.6
2012-03-16 01:47:00,0.0,1.9186,0.0011,402.48,0.24,-1.0,0.0,138.23,22.94,24.58,36.26,0.04,-272.73,-272.73,-45,567,-932,17.7,1.0,-39.4,17.9,1.0,-38.8,5.73,2.41,-36.9,23.7
2012-03-16 01:48:00,0.0,1.9189,0.0010,402.64,0.21,-1.0,0.0,138.22,22.95,24.58,36.25,0.04,-272.73,-272.73,-45,567,-932,17.7,1.0,-39.4,17.9,1.0,-38.8,5.73,2.42,-36.9,23.6
2012-03-16 01:49:00,0.0,1.9201,0.0010,402.64,0.24,-1.0,0.0,138.22,22.96,24.58,36.24,0.04,-272.73,-272.73,-45,567,-932,17.7,1.0,-39.5,17.9,1.0,-38.8,5.73,2.43,-36.9,23.7
2012-03-16 01:50:00,0.0,1.9203,0.0012,402.62,0.26,-1.0,0.0,138.23,22.97,24.58,36.25,0.04,-272.73,-272.73,-45,567,-932,17.7,1.0,-39.6,17.9,1.0,-38.8,5.73,2.44,-36.9,23.7
2012-03-16 01:51:00,0.0,1.9193,0.0008,402.63,0.23,-1.0,0.0,138.23,22.97,24.58,36.25,0.04,-272.73,-272.73,-45,567,-932,17.7,1.0,-39.6,17.9,1.0,-38.7,5.73,2.45,-36.9,23.7
2012-03-16 01:52:00,0.0,1.9190,0.0009,402.62,0.22,-1.0,0.0,138.22,22.98,24.59,36.25,0.04,-272.73,-272.73,-45,567,-932,17.7,1.0,-39.6,17.9,1.0,-39.0,5.73,2.45,-36.9,23.7
2012-03-16 01:53:00,0.0,1.9193,0.0009,402.62,0.25,-1.0,0.0,138.22,22.99,24.58,36.25,0.04,-272.72,-272.73,-45,567,-932,17.7,0.9,-39.7,17.9,1.0,-39.0,5.73,2.44,-36.8,23.7
2012-03-16 01:54:00,0.0,1.9189,0.0009,402.61,0.23,-1.0,0.0,138.22,23.00,24.58,36.25,0.04,-272.73,-272.73,-45,567,-932,17.8,1.0,-39.6,18.0,1.0,-38.9,5.73,2.43,-36.8,23.7
2012-03-16 01:55:00,0.0,1.9188,0.0009,402.65,0.23,-1.0,0.0,138.22,23.00,24.58,36.25,0.04,-272.73,-272.73,-45,567,-932,17.8,1.0,-39.5,18.0,1.0,-38.7,5.73,2.42,-36.8,23.7
2012-03-16 01:56:00,0.0,1.9196,0.0010,402.64,0.21,-1.0,0.0,138.22,23.02,24.58,36.25,0.04,-272.72,-272.73,-45,567,-932,17.8,1.0,-39.3,18.0,1.0,-38.7,5.73,2.41,-36.8,23.7
2012-03-16 01:57:00,0.0,1.9191,0.0011,402.55,0.22,-1.0,0.0,138.22,23.03,24.58,36.25,0.04,-272.73,-272.73,-45,567,-932,17.8,1.0,-39.1,18.0,1.1,-38.5,5.73,2.40,-36.8,23.8
2012-03-16 01:58:00,0.0,1.9188,0.0008,402.55,0.26,-1.0,0.0,138.22,23.04,24.58,36.25,0.04,-272.73,-272.72,-45,567,-932,17.8,1.0,-39.1,18.0,1.1,-38.4,5.73,2.40,-36.8,23.8
2012-03-16 01:59:00,0.0,1.9188,0.0009,402.56,0.20,-1.0,0.0,138.22,23.04,24.58,36.25,0.04,-272.73,-272.73,-45,567,-932,17.8,1.0,-39.0,18.0,1.1,-38.5,5.73,2.41,-36.8,23.8
2012-03-16 02:00:00,0.0,1.9194,0.0013,402.61,0.23,-1.0,0.0,138.22,23.05,24.58,36.24,0.04,-272.72,-272.73,-45,567,-932,17.8,1.0,-39.0,18.0,1.1,-38.4,5.73,2.42,-36.7,23.8
2012-03-16 02:01:00,0.0,1.9203,0.0008,402.61,0.21,-1.0,0.0,138.22,23.07,24.58,36.25,0.04,-272.73,-272.73,-45,567,-932,17.8,1.0,-38.8,18.0,1.1,-38.2,5.73,2.43,-36.7,23.8
2012-03-16 02:02:00,0.0,1.9202,0.0011,402.56,0.24,-1.0,0.0,138.22,23.08,24.59,36.25,0.04,-272.72,-272.73,-45,567,-932,17.8,1.0,-38.7,18.1,1.1,-38.2,5.73,2.44,-36.7,23.8
2012-03-16 02:03:00,0.0,1.9204,0.0010,402.58,0.23,-1.0,0.0,138.22,23.08,24.58,36.25,0.04,-272.72,-272.73,-45,567,-932,17.9,1.0,-38.6,18.1,1.1,-38.0,5.73,2.44,-36.7,23.8
2012-03-16 02:04:00,0.0,1.9195,0.0011,402.52,0.17,-1.0,0.0,138.22,23.09,24.58,36.25,0.04,-272.73,-272.73,-45,567,-932,17.9,1.1,-38.5,18.1,1.1,-37.8,5.73,2.45,-36.7,23.8
2012-03-16 02:05:00,0.0,1.9193,0.0010,402.47,0.24,-1.0,0.0,138.22,23.10,24.59,36.25,0.04,-272.73,-272.73,-45,566,-932,17.9,1.1,-38.3,18.1,1.1,-37.7,5.73,2.43,-36.7,23.9
2012-03-16 02:06:00,0.0,1.9193,0.0009,402.55,0.24,-1.0,0.0,138.22,23.11,24.58,36.25,0.04,-272.72,-272.73,-45,566,-932,17.9,1.1,-38.2,18.1,1.2,-37.6,5.73,2.42,-36.6,23.9
2012-03-16 02:07:00,0.0,1.9200,0.0009,402.51,0.27,-1.0,0.0,138.22,23.12,24.58,36.25,0.04,-272.72,-272.73,-45,566,-932,17.9,1.1,-38.0,18.1,1.2,-37.4,5.73,2.41,-36.6,23.9
2012-03-16 02:08:00,0.0,1.9203,0.0009,402.56,0.22,-1.0,0.0,138.22,23.13,24.58,36.25,0.04,-272.73,-272.73,-45,566,-932,17.9,1.1,-37.9,18.1,1.2,-37.3,5.73,2.40,-36.6,23.9
2012-03-16 02:09:00,0.0,1.9202,0.0010,402.48,0.22,-1.0,0.0,138.22,23.14,24.58,36.25,0.04,-272.72,-272.72,-45,566,-932,17.9,1.2,-37.7,18.1,1.2,-37.2,5.73,2.40,-36.6,23.9
2012-03-16 02:10:00,0.0,1.9209,0.0008,402.47,0.18,-1.0,0.0,138.22,23.15,24.58,36.25,0.04,-272.73,-272.73,-45,566,-932,17.9,1.2,-37.7,18.1,1.2,-36.9,5.73,2.40,-36.6,23.9
2012-03-16 02:11:00,0.0,1.9200,0.0010,402.59,0.20,-1.0,0.0,138.22,23.16,24.58,36.25,0.04,-272.73,-272.73,-45,566,-932,17.9,1.2,-37.5,18.1,1.2,-37.0,5.73,2.40,-36.6,23.9
2012-03-16 02:12:00,0.0,1.9210,0.0010,402.52,0.25,-1.0,0.0,138.22,23.18,24.58,36.25,0.04,-272.72,-272.73,-45,566,-932,17.9,1.2,-37.5,18.1,1.2,-37.0,5.73,2.43,-36.5,23.9
2012-03-16 02:13:00,0.0,1.9212,0.0009,402.58,0.22,-1.0,0.0,138.22,23.19,24.58,36.25,0.04,-272.73,-272.73,-45,566,-932,18.0,1.2,-37.4,18.1,1.2,-36.7,5.73,2.43,-36.5,23.9
2012-03-16 02:14:00,0.0,1.9208,0.0010,402.57,0.22,-1.0,0.0,138.22,23.20,24.58,36.25,0.04,-272.73,-272.73,-45,566,-932,18.0,1.2,-37.2,18.2,1.2,-36.7,5.73,2.44,-36.5,23.9
2012-03-16 02:15:00,0.0,1.9208,0.0010,402.69,0.20,-1.0,0.0,138.22,23.21,24.58,36.24,0.04,-272.73,-272.73,-45,566,-932,18.0,1.2,-37.3,18.2,1.3,-36.6,5.73,2.44,-36.5,23.9
2012-03-16 02:16:00,0.0,1.9204,0.0009,402.42,0.21,-1.0,0.0,138.22,23.22,24.58,36.26,0.04,-272.73,-272.73,-45,566,-932,18.0,1.2,-37.2,18.2,1.3,-36.5,5.73,2.44,-36.5,23.9
2012-03-16 02:17:00,0.0,1.9201,0.0010,402.57,0.24,-1.0,0.0,138.22,23.22,24.58,36.25,0.04,-272.73,-272.73,-45,566,-932,18.0,1.2,-37.0,18.2,1.3,-36.5,5.73,2.44,-36.4,23.9
2012-03-16 02:18:00,0.0,1.9203,0.0008,402.53,0.20,-1.0,0.0,138.22,23.23,24.58,36.25,0.04,-272.73,-272.73,-45,566,-932,18.0,1.2,-37.0,18.2,1.3,-36.5,5.73,2.42,-36.4,23.9